Wind_Speed
27 27 27 27 27 27 27 27 28 27 26 26 26 26 26 26 27 27 27 26 27 27 27 27 28 27 27 27 27 28 29 29 28 28 29 29 29 29 29 28 27 27 26
28 29 29 28 28 28 28 28 28 27 26 26 26 26 26 26 27 28 28 27 27 27 27 28 29 29 29 29 29 30 30 30 30 30 30 30 30 30 29 29 28 28 27
29 30 30 30 29 28 28 27 27 27 27 26 26 26 26 26 27 28 29 29 28 28 28 29 30 30 30 30 31 31 31 31 32 32 31 31 31 31 31 30 30 29 29
30 30 30 29 28 27 27 27 27 27 28 27 27 27 28 27 27 28 29 29 29 29 29 29 29 30 30 31 31 32 33 33 33 32 32 33 33 32 32 32 31 31 30
30 30 29 28 28 28 27 27 27 28 29 29 29 29 29 29 29 29 29 29 30 29 30 31 30 31 32 33 33 33 33 34 34 34 34 33 34 34 33 33 32 32 32
30 30 29 29 29 28 28 29 29 29 30 30 29 29 29 29 29 28 29 29 29 30 30 30 30 31 32 33 33 34 34 34 35 35 35 35 35 35 34 33 33 33 33
30 30 29 29 29 29 29 29 29 29 29 29 29 29 28 28 29 29 29 29 30 30 30 30 31 30 31 32 33 33 33 34 34 35 36 36 37 36 35 35 34 35 34
29 29 29 29 29 28 28 29 29 28 28 28 28 28 28 28 28 28 28 29 30 30 30 29 30 30 30 31 31 32 33 34 34 34 35 35 36 37 36 36 35 36 34
28 28 29 29 29 28 29 28 27 28 28 28 28 28 29 28 27 28 28 29 29 30 29 29 29 30 30 30 31 31 32 33 33 34 34 35 36 37 36 37 36 36 36
29 29 29 28 28 28 28 28 27 27 27 27 27 27 28 28 28 27 28 28 29 28 27 27 28 28 29 29 30 30 31 31 32 33 34 35 35 36 36 36 37 36 36
28 28 28 28 28 28 28 27 27 27 27 27 26 26 26 27 27 28 28 28 28 27 26 26 27 27 27 28 29 28 29 31 31 32 33 34 36 36 35 36 36 37 37
28 27 28 28 28 27 27 26 26 27 27 26 26 25 26 25 26 26 26 25 25 25 25 25 25 24 24 26 26 26 27 28 29 30 32 33 35 36 36 36 36 37 37
27 27 27 27 26 25 25 25 25 25 25 25 25 25 25 25 26 25 25 25 24 23 23 24 23 23 23 24 25 25 25 25 27 28 29 32 33 34 36 37 37 37 38
25 25 25 25 24 24 23 23 24 24 24 24 25 25 25 25 26 25 24 24 25 24 23 24 24 23 23 23 24 25 25 26 26 27 28 29 31 32 34 36 37 38 38
24 24 24 25 24 24 24 24 25 24 24 24 24 24 25 25 25 25 24 24 24 24 23 22 23 23 22 23 24 25 25 26 26 27 27 28 29 31 32 34 35 36 37
23 23 24 24 23 24 24 24 24 24 24 24 24 24 24 24 24 23 23 23 23 23 22 21 22 23 23 23 23 23 24 24 25 26 27 28 28 29 31 32 34 34 35
23 22 22 22 22 23 23 23 24 24 23 23 23 23 23 23 23 23 22 22 22 22 22 21 20 21 22 22 23 23 23 23 24 25 26 27 28 27 28 29 31 32 34
21 21 21 22 21 22 22 22 22 22 22 22 22 22 22 22 22 21 20 20 20 21 21 21 21 21 22 22 22 23 22 22 23 24 25 25 26 27 27 27 28 30 31
21 21 21 21 20 20 21 21 21 21 21 21 21 21 21 21 20 19 18 18 19 20 21 20 20 20 20 21 22 22 22 22 22 23 24 25 24 26 27 26 27 28 30
21 20 19 20 19 20 20 20 21 21 20 20 19 19 18 18 19 18 18 18 18 19 19 19 19 19 18 19 20 20 21 21 21 21 22 23 23 23 24 25 26 27 29
19 18 19 19 19 20 20 20 20 19 19 19 19 18 18 18 18 19 19 18 18 18 18 19 18 18 17 18 18 19 20 20 20 20 20 21 22 23 23 23 23 24 26
19 18 18 19 19 19 19 19 19 19 19 19 18 18 17 18 18 18 18 18 18 18 18 18 17 17 17 17 18 19 19 19 19 20 20 20 21 21 22 22 22 24 25
17 17 18 18 19 19 19 19 18 19 19 19 18 17 17 17 18 17 17 18 18 18 18 18 18 18 17 18 18 18 19 19 19 19 20 20 20 20 21 22 23 24 24
17 18 18 18 18 18 19 18 18 18 18 18 18 18 18 18 18 17 17 18 18 17 18 18 18 18 18 18 18 18 19 19 19 19 19 19 19 20 20 21 21 22 23
16 17 18 17 18 18 18 17 18 17 17 17 17 17 18 18 18 17 17 17 17 17 17 17 17 17 17 17 17 18 18 18 18 18 18 19 19 19 20 20 21 22 23
16 17 16 16 17 17 17 17 17 17 17 17 17 17 17 17 17 17 17 17 17 17 17 16 16 16 17 17 17 18 18 18 18 18 18 19 19 19 19 20 20 21 22
Wind_Direction
298 298 299 296 297 297 295 294 294 293 292 291 291 287 284 283 280 278 276 275 274 273 270 267 266 266 265 262 261 259 256 255 255 252 251 250 250 249 249 247 245 244 243
298 299 297 294 294 295 295 294 293 294 293 292 292 290 287 286 284 279 276 273 273 273 271 269 267 266 266 264 261 259 257 255 254 252 251 250 249 248 247 246 245 244 242
297 298 297 296 294 293 295 295 294 294 293 292 291 290 288 286 284 282 277 275 274 273 272 270 268 266 265 264 262 260 257 254 252 252 250 249 248 248 247 246 245 244 243
298 298 297 296 295 294 293 295 294 293 293 292 290 289 287 286 285 282 279 276 274 274 273 271 268 266 265 264 263 261 258 256 254 252 252 250 248 246 245 245 245 244 244
299 298 299 297 297 295 294 294 294 293 293 292 290 289 287 286 285 283 280 276 274 274 274 271 269 268 266 263 261 260 259 257 256 253 252 251 248 246 246 244 244 243 244
300 298 297 297 296 294 293 293 293 293 292 292 290 289 289 286 285 284 281 279 277 276 274 273 271 269 267 264 262 259 257 257 255 254 252 251 249 247 246 245 245 245 245
302 298 297 297 296 294 292 292 292 291 291 292 291 289 288 286 284 282 281 280 278 276 275 273 271 270 267 265 264 261 258 257 255 254 253 251 249 247 247 246 246 245 245
303 300 302 300 299 297 292 291 292 292 292 293 292 289 287 286 286 284 282 281 280 278 275 273 271 269 268 266 263 262 260 258 256 255 254 251 247 246 247 246 245 245 245
304 302 303 304 303 300 296 294 294 294 294 294 292 289 288 287 286 285 284 284 283 280 277 275 271 269 267 265 263 261 260 258 255 255 255 251 247 246 247 246 245 245 245
304 303 303 303 303 300 297 295 295 295 295 294 292 290 289 288 285 285 285 285 283 282 279 276 272 271 269 266 265 261 260 258 256 254 254 251 248 246 246 245 245 246 247
305 304 303 303 302 301 298 295 294 294 294 294 293 292 291 289 287 288 287 285 284 282 280 277 275 273 270 268 267 264 261 259 257 255 253 251 248 246 245 245 245 246 247
306 305 305 304 302 301 299 296 294 294 295 295 294 293 293 291 290 290 289 288 286 283 280 278 276 273 273 269 267 266 263 260 258 256 253 251 249 247 246 245 245 246 247
307 307 307 305 304 302 301 299 297 297 297 296 295 295 295 294 292 289 288 288 289 286 281 278 277 271 272 268 267 266 265 262 260 255 252 251 251 249 248 246 245 246 247
307 308 308 307 306 304 303 302 301 300 299 299 298 297 296 296 293 291 290 290 290 289 285 280 280 279 274 270 266 267 267 265 262 258 256 252 251 250 249 247 246 245 246
308 308 309 310 308 306 304 304 305 302 302 301 301 299 298 296 294 292 293 291 290 290 287 282 279 277 275 272 269 269 268 265 263 260 258 254 250 249 249 248 246 245 244
313 310 312 312 311 310 308 307 306 304 303 302 302 301 298 296 295 294 292 289 290 291 288 284 281 278 275 274 270 268 267 265 265 261 258 254 251 250 249 247 246 245 245
316 315 314 314 315 315 313 310 309 307 304 303 302 302 299 297 297 296 292 289 288 289 290 286 282 279 278 276 270 268 268 266 264 263 259 255 252 252 250 248 248 246 246
313 317 318 317 316 316 317 317 317 314 309 307 305 303 302 300 299 297 294 293 291 290 289 287 283 279 278 275 273 270 269 269 267 265 261 257 255 254 252 250 249 248 246
314 316 318 318 321 321 321 320 318 318 316 313 309 307 306 305 302 300 298 296 294 292 291 289 285 281 278 276 274 274 272 272 270 266 262 259 259 256 252 250 249 247 246
313 314 318 321 324 323 323 321 322 322 322 320 316 314 312 309 306 303 301 300 298 297 296 292 290 285 281 278 276 275 274 274 271 268 265 260 260 258 253 249 248 246 246
314 317 319 321 323 324 324 325 325 325 323 322 319 316 313 309 306 305 304 305 305 303 300 296 294 289 285 281 279 277 274 273 271 268 266 261 259 257 255 250 247 244 245
315 317 319 323 324 324 322 322 324 324 324 322 318 314 313 312 310 307 306 307 307 304 302 300 297 293 287 282 280 278 277 273 271 268 265 263 261 257 254 251 249 249 247
318 318 321 324 324 324 323 323 323 325 326 326 324 321 318 316 315 311 309 308 309 307 303 301 297 295 290 284 281 279 278 276 273 269 266 263 260 256 254 252 251 250 250
321 322 323 325 324 323 324 324 325 325 326 326 326 326 323 321 316 313 311 311 312 310 306 302 298 295 291 287 281 277 277 277 276 272 268 264 261 259 256 254 253 251 251
324 326 327 325 326 326 326 327 329 329 328 329 331 331 328 326 321 318 316 314 313 313 312 308 304 300 295 291 286 282 282 282 278 274 269 265 263 261 258 256 254 253 252
325 326 326 328 328 328 328 330 332 333 333 332 333 333 334 332 327 321 318 316 315 314 314 311 306 303 299 294 290 286 283 282 280 276 271 268 265 264 262 258 256 256 256
Height
5840 5839 5837 5835 5834 5832 5831 5829 5828 5826 5825 5824 5822 5821 5821 5819 5819 5818 5818 5818 5818 5818 5818 5818 5818 5819 5819 5820 5821 5822 5823 5824 5826 5827 5829 5830 5832 5834 5836 5838 5840 5842 5845
5835 5833 5832 5829 5828 5826 5824 5823 5821 5820 5818 5817 5816 5815 5814 5813 5812 5811 5810 5810 5810 5810 5811 5811 5811 5812 5812 5813 5813 5814 5815 5817 5818 5820 5822 5824 5826 5828 5830 5832 5834 5836 5839
5829 5828 5826 5824 5822 5820 5818 5816 5815 5813 5812 5811 5809 5808 5807 5806 5805 5804 5803 5803 5803 5803 5803 5803 5803 5804 5805 5805 5806 5806 5807 5809 5810 5812 5815 5817 5819 5821 5823 5825 5827 5830 5832
5823 5822 5820 5818 5816 5814 5812 5810 5809 5807 5805 5803 5802 5801 5800 5799 5797 5796 5795 5795 5795 5795 5795 5795 5795 5796 5796 5797 5798 5798 5799 5801 5802 5804 5807 5809 5811 5813 5816 5818 5821 5823 5825
5818 5816 5814 5812 5810 5808 5806 5804 5803 5800 5798 5796 5795 5794 5792 5791 5789 5788 5787 5786 5786 5786 5786 5786 5786 5787 5787 5788 5789 5790 5791 5792 5794 5796 5798 5801 5803 5806 5808 5811 5814 5816 5819
5812 5809 5808 5806 5804 5802 5800 5798 5796 5794 5791 5789 5787 5786 5785 5783 5781 5780 5779 5778 5778 5778 5777 5777 5778 5778 5778 5779 5779 5780 5782 5783 5785 5787 5790 5793 5795 5798 5801 5803 5806 5809 5811
5805 5803 5801 5800 5797 5795 5793 5791 5789 5787 5784 5782 5780 5779 5777 5775 5774 5772 5771 5771 5770 5769 5769 5769 5769 5769 5769 5770 5770 5771 5772 5774 5776 5778 5781 5783 5786 5789 5792 5795 5798 5801 5804
5800 5797 5795 5793 5791 5789 5786 5784 5782 5779 5777 5775 5773 5771 5770 5769 5767 5765 5763 5762 5761 5761 5760 5760 5760 5760 5760 5761 5761 5762 5764 5766 5767 5769 5772 5774 5777 5780 5784 5787 5790 5793 5796
5794 5792 5789 5787 5784 5782 5780 5777 5775 5773 5770 5768 5766 5764 5762 5761 5759 5758 5756 5754 5753 5752 5752 5751 5751 5751 5751 5752 5753 5754 5755 5757 5758 5760 5762 5765 5768 5771 5775 5778 5781 5785 5788
5788 5786 5783 5781 5778 5776 5773 5771 5769 5766 5764 5761 5759 5757 5755 5753 5751 5750 5749 5746 5745 5744 5744 5743 5742 5743 5743 5743 5744 5745 5746 5748 5750 5751 5753 5756 5759 5762 5766 5769 5772 5776 5779
5782 5780 5777 5774 5772 5769 5767 5764 5762 5759 5757 5754 5752 5750 5748 5746 5744 5742 5741 5739 5738 5736 5736 5735 5735 5735 5735 5736 5736 5737 5738 5739 5741 5743 5745 5747 5750 5753 5756 5760 5763 5767 5770
5776 5774 5771 5768 5766 5763 5760 5758 5755 5753 5750 5748 5745 5743 5741 5739 5737 5735 5733 5732 5731 5730 5729 5728 5728 5728 5728 5729 5729 5730 5731 5731 5732 5734 5736 5738 5741 5744 5747 5751 5755 5758 5761
5771 5768 5765 5762 5760 5757 5754 5752 5749 5746 5744 5741 5739 5736 5734 5732 5730 5728 5727 5725 5724 5723 5722 5722 5721 5721 5722 5722 5723 5723 5723 5724 5725 5726 5728 5730 5732 5735 5738 5742 5745 5749 5752
5765 5763 5760 5757 5754 5752 5749 5746 5743 5740 5738 5735 5732 5730 5728 5726 5724 5722 5720 5719 5718 5717 5716 5716 5715 5715 5715 5715 5716 5716 5716 5717 5717 5719 5720 5722 5724 5726 5729 5732 5736 5739 5743
5760 5758 5756 5753 5750 5747 5743 5740 5737 5734 5731 5728 5726 5724 5722 5719 5717 5716 5714 5713 5712 5711 5711 5710 5709 5709 5709 5709 5709 5709 5709 5710 5710 5711 5713 5714 5716 5718 5720 5723 5727 5730 5733
5756 5753 5751 5748 5745 5742 5738 5735 5732 5728 5725 5722 5720 5718 5716 5714 5712 5710 5709 5708 5706 5705 5705 5704 5703 5702 5702 5702 5702 5703 5703 5703 5704 5704 5706 5707 5708 5710 5712 5715 5718 5721 5724
5752 5750 5747 5744 5740 5737 5733 5730 5726 5722 5719 5717 5714 5712 5710 5708 5706 5705 5703 5702 5701 5700 5699 5698 5697 5696 5696 5696 5696 5696 5696 5697 5697 5698 5698 5700 5701 5702 5704 5707 5709 5712 5715
5748 5745 5743 5740 5736 5733 5729 5725 5721 5718 5715 5712 5710 5708 5705 5703 5701 5699 5698 5697 5696 5694 5693 5693 5692 5691 5690 5690 5690 5690 5690 5690 5691 5691 5692 5693 5694 5695 5697 5699 5701 5704 5707
5744 5741 5739 5736 5733 5729 5726 5722 5718 5715 5712 5709 5706 5704 5701 5699 5697 5695 5693 5692 5691 5689 5688 5687 5686 5685 5684 5683 5683 5683 5684 5684 5684 5684 5685 5686 5687 5688 5690 5691 5694 5696 5699
5740 5738 5735 5732 5729 5726 5722 5718 5715 5712 5709 5705 5702 5700 5697 5695 5693 5691 5689 5688 5686 5684 5683 5681 5680 5679 5678 5678 5677 5677 5678 5677 5678 5678 5678 5679 5680 5681 5683 5684 5686 5688 5691
5737 5734 5731 5729 5725 5722 5719 5715 5712 5709 5706 5702 5699 5696 5694 5692 5689 5687 5685 5683 5681 5680 5678 5676 5675 5674 5673 5672 5672 5672 5672 5672 5672 5672 5672 5673 5673 5675 5676 5677 5679 5681 5684
5733 5731 5728 5725 5722 5719 5716 5713 5709 5706 5703 5699 5696 5693 5691 5688 5686 5684 5682 5679 5677 5675 5673 5672 5670 5669 5668 5667 5666 5666 5666 5666 5666 5666 5666 5667 5667 5668 5669 5671 5673 5675 5677
5730 5727 5725 5722 5719 5716 5713 5710 5706 5703 5700 5697 5693 5690 5688 5685 5682 5680 5678 5675 5673 5671 5669 5667 5665 5664 5663 5662 5661 5660 5660 5660 5660 5660 5660 5660 5661 5662 5663 5665 5666 5668 5669
5727 5724 5721 5718 5715 5712 5710 5706 5703 5700 5697 5694 5690 5687 5684 5681 5678 5676 5674 5671 5669 5667 5664 5662 5660 5659 5657 5656 5655 5655 5654 5654 5654 5653 5653 5654 5655 5656 5657 5658 5659 5661 5662
5723 5721 5718 5715 5712 5709 5706 5704 5700 5697 5694 5691 5688 5684 5681 5678 5675 5672 5670 5668 5665 5663 5660 5658 5655 5654 5652 5651 5650 5649 5649 5648 5648 5648 5648 5648 5649 5649 5650 5651 5652 5654 5655
5720 5718 5715 5712 5709 5707 5704 5701 5698 5695 5691 5688 5685 5682 5678 5675 5672 5669 5666 5664 5662 5659 5656 5654 5652 5650 5648 5646 5645 5644 5643 5643 5642 5642 5642 5642 5642 5643 5644 5645 5646 5647 5648